COSMOS 1867 COOLANT

Satellite information

Favourite Embed

Satellite Type and Status

DEBRISIN ORBIT

Key statistics

Satellite COSMOS 1867 COOLANT at a glance.

Uptime

13939

Days in orbit

Revolutions

≈ 14.3

Per day

Orbit

LEO

Low Earth Orbit

Inclination

65.0

Latest

Satellite identification and parameters

Extended collection of information and parameters for COSMOS 1867 COOLANT.

Object identification

Identified? True

Debris? False

Object name: COSMOS 1867 COOLANT

International designator: 1987-060AH

Object number (NORAD): 39670

Object ID (CCSDS): 39670

Country: COMMONWEALTH OF INDEPENDENT STATES (CIS)

Current information (Y/N): Y

RCS size: SMALL

Orbital parameters

Period: 100.439 minutes

Inclination: 65.009 deg

SMA: 7157.509 km

Apoapsis: 789.371 km

Periapsis: 769.378 km

RAAN: 85.6381 deg

Eccentricy: 0.00139665

Argument of periapsis: 258.6386 deg

Mean anomaly: 101.3131 deg

Mean motion: 14.33705227 rev/day

Mean motion (dot): 0.00000484 rev/day2

B* drag term: 0.00021005238 1/REarth

Two-line elements (TLE)

Creation date: Sept. 7, 2025, 3:09 a.m.

Reference frame: TEME

Reference center: EARTH

Epoch: Sept. 6, 2025, 7:36 p.m. UTC

TLE line 0: 0 COSMOS 1867 COOLANT

TLE line 1: 1 39670U 87060AH 25249.81699042 .00000484 00000-0 21005-3 0 9994

TLE line 2: 2 39670 65.0090 85.6381 0013967 258.6386 101.3131 14.33705227596017

Live tracking on map

Real-time ground track for satellite COSMOS 1867 COOLANT.

In-orbit conjunctions

A list of the most updated potential collisions computed for object COSMOS 1867 COOLANT.

Target Orbit TCA Probability of collision Miss distance Type
FENGYUN 1C DEB SSO 2025-08-19 18:24:09 0.0001594006 72.0 (m) DEBRIS
NOAA 16 DEB SSO 2025-05-14 12:29:40 0.0001614179 159.0 (m) DEBRIS

Associated space launch

Nuclear-powered magnetospheric research satellite

COSMOS 1867 COOLANT was lifted into orbit during the mission ‘Tsiklon-2 | Plasma-A 2’, on board a Tsiklon-2 space rocket.

The launch took place on July 10, 1987, 3:35 p.m. from 90.

For more information about the launch, click the button.

Launch to space Tsiklon-2 | Plasma-A 2
Tsiklon-2 | Plasma-A 2

Agency: N/A

Status: Launch Successful

Launch date: July 10, 1987, 3:35 p.m. UTC

Rocket: Tsiklon-2

Launch pad: 90

Location: Baikonur Cosmodrome, Republic of Kazakhstan

...

Latest news about this satellite

There are no fresh news available about this satellite. Check back as we update our databases every day.


Newsletter sign-up

Weekly statistics, charts and insights to help you stay on top of the space industry.